| time (UTC) | temp C | wind direction | speed KPH | gust KPH | rain 1hr cm | rain 24hr cm | rain mn cm | humidity % | barometer mb |
| 20260906231556 | 15 | 1.6 | 4.8 | 0.00 | 0.05 | 0.05 | 77 | 1016.4 | |
| 20260906230058 | 15 | 0.0 | 4.8 | 0.00 | 0.05 | 0.05 | 77 | 1016.2 | |
| 20260906224556 | 15 | 0.0 | 6.4 | 0.00 | 0.13 | 0.05 | 78 | 1016.1 | |
| 20260906223055 | 15 | 1.6 | 6.4 | 0.00 | 0.13 | 0.05 | 78 | 1016.2 | |
| 20260906221600 | 15 | 3.2 | 8.0 | 0.00 | 0.13 | 0.05 | 77 | 1016.3 | |
| 20260906220055 | 15 | 1.6 | 9.7 | 0.00 | 0.13 | 0.05 | 78 | 1016.3 | |
| 20260906214551 | 15 | 3.2 | 8.0 | 0.00 | 0.13 | 0.05 | 79 | 1016.6 | |
| 20260906213100 | 15 | 1.6 | 9.7 | 0.00 | 0.13 | 0.05 | 79 | 1016.6 | |
| 20260906211551 | 15 | 3.2 | 9.7 | 0.00 | 0.13 | 0.05 | 81 | 1016.7 | |
| 20260906210053 | 15 | 3.2 | 8.0 | 0.00 | 0.13 | 0.05 | 79 | 1016.8 | |
| 20260906204601 | 15 | 3.2 | 6.4 | 0.00 | 0.13 | 0.05 | 81 | 1016.8 | |
| 20260906203046 | 15 | 1.6 | 4.8 | 0.00 | 0.13 | 0.05 | 81 | 1016.5 | |
| 20260906201601 | 15 | 0.0 | 4.8 | 0.00 | 0.13 | 0.05 | 85 | 1016.8 | |
| 20260906200039 | 14 | 0.0 | 0.0 | 0.00 | 0.13 | 0.05 | 91 | 1016.9 | |
| 20260906194537 | 13 | 0.0 | 3.2 | 0.00 | 0.13 | 0.05 | 97 | 1016.9 | |
| 20260906193035 | 13 | 0.0 | 3.2 | 0.00 | 0.13 | 0.05 | 97 | 1016.9 | |
| 20260906191532 | 13 | 0.0 | 0.0 | 0.00 | 0.13 | 0.05 | 97 | 1017.1 | |
| 20260906190032 | 13 | 0.0 | 3.2 | 0.03 | 0.13 | 0.05 | 98 | 1017.2 | |
| 20260906184530 | 12 | 0.0 | 3.2 | 0.03 | 0.18 | 0.05 | 98 | 1017.2 | |
| 20260906183029 | 12 | 0.0 | 4.8 | 0.03 | 0.18 | 0.05 | 98 | 1017.2 | |
| 20260906181527 | 12 | 3.2 | 8.0 | 0.03 | 0.18 | 0.05 | 98 | 1017.7 | |
| 20260906180051 | 11 | 3.2 | 8.0 | 0.00 | 0.15 | 0.05 | 98 | 1017.9 | |
| 20260906174522 | 11 | 4.8 | 9.7 | 0.00 | 0.18 | 0.05 | 98 | 1018.2 | |
| 20260906173019 | 11 | 3.2 | 9.7 | 0.00 | 0.18 | 0.05 | 98 | 1018.3 | |
| 20260906171516 | 11 | 3.2 | 8.0 | 0.00 | 0.18 | 0.05 | 98 | 1018.6 | |
| 20260906170015 | 11 | 3.2 | 9.7 | 0.03 | 0.18 | 0.05 | 98 | 1018.5 | |
| 20260906164513 | 10 | 3.2 | 9.7 | 0.05 | 0.36 | 0.05 | 98 | 1018.9 | |
| 20260906163011 | 10 | 3.2 | 6.4 | 0.05 | 0.36 | 0.05 | 98 | 1019.0 | |
| 20260906161516 | 10 | 4.8 | 6.4 | 0.05 | 0.36 | 0.05 | 98 | 1019.0 | |
| 20260906160009 | 10 | 4.8 | 8.0 | 0.03 | 0.33 | 0.03 | 98 | 1019.1 | |
| 20260906154513 | 10 | 1.6 | 6.4 | 0.00 | 0.33 | 0.00 | 98 | 1019.2 | |
| 20260906153009 | 10 | 4.8 | 8.0 | 0.00 | 0.33 | 0.00 | 98 | 1019.2 | |
| 20260906151507 | 10 | 3.2 | 4.8 | 0.00 | 0.33 | 0.00 | 98 | 1019.1 | |
| 20260906150011 | 10 | 0.0 | 1.6 | 0.00 | 0.33 | 0.00 | 98 | 1019.4 | |
| 20260906144510 | 10 | 0.0 | 1.6 | 0.00 | 0.33 | 0.00 | 98 | 1019.6 | |
| 20260906143005 | 10 | 0.0 | 3.2 | 0.00 | 0.33 | 0.00 | 98 | 1019.3 | |
| 20260906141503 | 10 | 3.2 | 6.4 | 0.00 | 0.33 | 0.00 | 98 | 1019.1 | |
| 20260906140006 | 10 | 3.2 | 6.4 | 0.00 | 0.33 | 0.00 | 98 | 1019.1 | |
| 20260906134502 | 10 | 0.0 | 3.2 | 0.00 | 0.33 | 0.00 | 98 | 1019.2 | |
| 20260906133003 | 10 | 3.2 | 6.4 | 0.00 | 0.33 | 0.00 | 98 | 1018.9 | |
| 20260906131559 | 10 | 3.2 | 6.4 | 0.00 | 0.33 | 0.00 | 98 | 1019.2 | |
| 20260906130100 | 10 | 1.6 | 4.8 | 0.00 | 0.33 | 0.00 | 98 | 1019.6 | |
| 20260906124557 | 10 | 0.0 | 4.8 | 0.00 | 0.33 | 0.00 | 98 | 1019.6 | |
| 20260906123154 | 10 | 1.6 | 4.8 | 0.00 | 0.33 | 0.00 | 98 | 1019.7 | |
| 20260906121556 | 10 | 1.6 | 4.8 | 0.00 | 0.33 | 0.00 | 98 | 1019.9 | |
| 20260906120110 | 10 | 0.0 | 3.2 | 0.00 | 0.33 | 0.00 | 98 | 1020.0 | |
| 20260906114550 | 10 | 0.0 | 3.2 | 0.00 | 0.33 | 0.00 | 98 | 1020.3 | |
| 20260906113056 | 10 | 1.6 | 3.2 | 0.00 | 0.33 | 0.00 | 98 | 1020.3 | |
| 20260906111605 | 10 | 0.0 | 0.0 | 0.00 | 0.33 | 0.00 | 98 | 1020.5 | |
| 20260906110048 | 10 | 0.0 | 1.6 | 0.00 | 0.33 | 0.00 | 98 | 1020.6 | |
| 20260906104546 | 10 | 0.0 | 0.0 | 0.00 | 0.33 | 0.00 | 98 | 1021.0 | |
| 20260906103046 | 10 | 0.0 | 1.6 | 0.00 | 0.33 | 0.00 | 98 | 1020.9 | |
| 20260906101546 | 10 | 0.0 | 4.8 | 0.00 | 0.33 | 0.00 | 98 | 1021.0 | |
| 20260906100044 | 10 | 3.2 | 8.0 | 0.00 | 0.33 | 0.00 | 98 | 1020.7 | |
| 20260906094543 | 10 | 4.8 | 11.3 | 0.00 | 0.33 | 0.00 | 98 | 1020.3 | |
| 20260906093041 | 10 | 6.4 | 11.3 | 0.00 | 0.33 | 0.00 | 98 | 1020.7 | |
| 20260906091537 | 10 | 3.2 | 6.4 | 0.00 | 0.33 | 0.00 | 98 | 1021.3 | |
| 20260906090036 | 9 | 3.2 | 11.3 | 0.00 | 0.33 | 0.00 | 97 | 1021.3 | |
| 20260906084544 | 9 | 4.8 | 8.0 | 0.00 | 0.33 | 0.00 | 97 | 1021.3 | |
| 20260906083035 | 9 | 3.2 | 6.4 | 0.00 | 0.33 | 0.00 | 97 | 1021.7 | |
| 20260906081530 | 9 | 3.2 | 8.0 | 0.00 | 0.33 | 0.00 | 97 | 1021.8 | |
| 20260906080031 | 8 | 3.2 | 6.4 | 0.00 | 0.33 | 0.00 | 97 | 1022.2 | |
| 20260906074525 | 8 | 3.2 | 8.0 | 0.00 | 0.33 | 0.00 | 97 | 1022.1 | |
| 20260906073028 | 8 | 4.8 | 8.0 | 0.00 | 0.33 | 0.00 | 97 | 1022.2 | |
| 20260906071522 | 8 | 6.4 | 9.7 | 0.00 | 0.33 | 0.00 | 97 | 1022.2 | |
| 20260906070022 | 8 | 6.4 | 9.7 | 0.00 | 0.33 | 0.00 | 97 | 1022.5 | |
| 20260906064520 | 8 | 4.8 | 8.0 | 0.00 | 0.33 | 0.00 | 97 | 1022.4 | |
| 20260906063018 | 8 | 6.4 | 11.3 | 0.00 | 0.33 | 0.00 | 97 | 1022.6 | |
| 20260906061516 | 9 | 6.4 | 9.7 | 0.00 | 0.33 | 0.00 | 97 | 1022.6 | |
| 20260906060014 | 9 | 3.2 | 11.3 | 0.00 | 0.33 | 0.00 | 97 | 1022.5 | |
| 20260906054515 | 8 | 4.8 | 8.0 | 0.00 | 0.33 | 0.33 | 97 | 1022.6 | |
| 20260906053013 | 8 | 4.8 | 9.7 | 0.00 | 0.33 | 0.33 | 97 | 1022.6 | |
| 20260906051511 | 8 | 4.8 | 11.3 | 0.00 | 0.33 | 0.33 | 97 | 1022.3 | |
| 20260906050011 | 8 | 6.4 | 9.7 | 0.00 | 0.33 | 0.33 | 97 | 1022.1 | |
| 20260906044514 | 8 | 6.4 | 8.0 | 0.00 | 0.33 | 0.33 | 97 | 1022.0 | |
| 20260906043010 | 8 | 1.6 | 4.8 | 0.00 | 0.33 | 0.33 | 97 | 1022.2 | |
| 20260906041510 | 8 | 1.6 | 6.4 | 0.00 | 0.33 | 0.33 | 97 | 1022.4 | |
| 20260906040011 | 9 | 4.8 | 8.0 | 0.00 | 0.33 | 0.33 | 97 | 1022.1 | |
| 20260906034512 | 9 | 1.6 | 4.8 | 0.00 | 0.33 | 0.33 | 96 | 1022.2 | |
| 20260906033019 | 9 | 3.2 | 8.0 | 0.00 | 0.33 | 0.33 | 96 | 1022.1 | |
| 20260906031504 | 10 | 4.8 | 9.7 | 0.00 | 0.33 | 0.33 | 96 | 1021.8 | |
| 20260906030002 | 10 | 6.4 | 9.7 | 0.00 | 0.33 | 0.33 | 96 | 1021.6 | |
| 20260906024625 | 10 | 6.4 | 11.3 | 0.00 | 0.33 | 0.33 | 96 | 1021.4 | |
| 20260906023102 | 10 | 6.4 | 11.3 | 0.00 | 0.33 | 0.33 | 96 | 1021.1 | |
| 20260906021559 | 10 | 4.8 | 9.7 | 0.00 | 0.33 | 0.33 | 96 | 1021.0 | |
| 20260906020058 | 10 | 6.4 | 11.3 | 0.00 | 0.33 | 0.33 | 96 | 1021.1 | |
| 20260906014607 | 10 | 6.4 | 11.3 | 0.00 | 0.33 | 0.33 | 96 | 1021.0 | |
| 20260906013055 | 10 | 8.0 | 11.3 | 0.00 | 0.33 | 0.33 | 96 | 1020.7 | |
| 20260906011554 | 10 | 4.8 | 11.3 | 0.00 | 0.33 | 0.33 | 96 | 1020.8 | |
| 20260906010059 | 10 | 6.4 | 11.3 | 0.00 | 0.33 | 0.33 | 96 | 1020.8 | |
| 20260906004553 | 10 | 6.4 | 12.9 | 0.00 | 0.33 | 0.33 | 96 | 1020.8 | |
| 20260906003109 | 10 | 8.0 | 12.9 | 0.00 | 0.33 | 0.33 | 96 | 1020.9 | |
| 20260906001551 | 11 | 6.4 | 11.3 | 0.00 | 0.33 | 0.33 | 97 | 1020.8 | |
| 20260905234551 | 11 | 4.8 | 9.7 | 0.00 | 0.33 | 0.33 | 97 | 1020.5 | |
| 20260905233053 | 11 | 6.4 | 8.0 | 0.03 | 0.33 | 0.33 | 97 | 1020.6 |